ALOS-2

Last updated on Mon Jul 07 2025 00:02:14 GMT+0000 (Coordinated Universal Time)

1 39766U 14029A 25187.53530234 .00001225 00000+0 17092-3 0 9996 2 39766 97.9226 284.6602 0001560 96.9540 263.1849 14.79470499600475
UTC large
Height (km)
Speed (km/s)
/
Latitude / Longitude
Inclination (degrees)
Orbital Period (minutes)
Azimuth
Elevation
Range (km)
Doppler Factor

Next 0 passes for location: London (51.5072 / 0.1276)

Sorry there are no passes over London.